DECAYED

STARLINK-1054, 44759 (Decayed)

Orbit data source: Space-Track

STARLINK-1054, 44759 was a payload satellite owned by SpaceX/Seattle (US) in LEO that was launched on Mon, 11 Nov 2019 UTC via an FALCON 9 launch vehicle from the Air Force Eastern Test Range (AFETR). Payload-class satellites include a variety of spacecraft equipped with specific instruments for various scientific and technological missions. These include communications satellites like Starlink; space stations such as the ISS; scientific satellites like the Hubble; Earth observation satellites from companies like Planet Labs, Umbra, and HawkEye 360; GPS; miniature CubeSats for education and research; and military/defense satellites.

Not visible in the next 10 days
Identifier
44759, 2019-074AY
Orbit
Decayed
Country
Flag of USUS
Related business
Manufacturer
SpaceX/Seattle
Mission
Decayed Commercial Communications
Bus & Motor
STARLINK, Unknown motor
Mass
260 kg wet, ~248 kg dry
Launch date (UTC)
2019-11-11 (7 years ago)
Launch vehicle
FALCON 9
Launch site
Air Force Eastern Test Range (AFETR)
Object type
Payload
Rocket body
Debris
Shape & HBR
Box + 1 Pan, 10.1 m
Radar Cross Section
13.562 m², Large (>1 m²)

Expand to show TLE details & history
Last TLE update: 7 months ago

TLE from 7 months ago
0 STARLINK-1054
1 44759U 19074AY  25324.26110816  .07617955  12283-4  56629-3 0  9992
2 44759  53.0197 285.7052 0004701 164.1383 195.9811 16.39822134330350
Epoch: 2025-11-20T06:15Z
TLE epoch observation values (Epoch: 2025-11-20T06:15:59.745Z)
Latitude
-0.00001°
Longitude
132.18522°
Altitude
170.16 km
Speed
7.804 km/s
True Right ascension
19h 02m 49s
True Declination
0° 00' 00"
Sunlit
Object was in daylight at epoch
Visualization orbit readout
Latitude
Unknown
Longitude
Unknown
Altitude
Unknown
Speed
Unknown
Apparent Right ascension
Unknown
Apparent Declination
Unknown
Sunlit
N/A
Visualization observer readout
Local Sidereal Time
21:38:00
Azimuth
Unknown
Elevation
Unknown
Doppler factor
Unknown
Orbital elements
Apogee altitude
169.644 km
Perigee altitude
163.491 km
Semi-major axis
6,544.705 km
Eccentricity
0.00047
Inclination
53.0197°
RAAN
285.7052°
Arg. of periapsis
164.1383°
True anomaly
195.96628°
Mean anomaly
195.9811°
Eccentric anomaly
195.97369°
Mean motion
4.09928 °/min
Orbital period
87.82 mins
BSTAR
0.00056629
Loading maneuver chart data...
Computing Atmospheric mass density...

Documentation

Showing up to 5 results
|